Regional & State Weather Roundups


849 
ASUS43 KTOP 151959
RWRKS 
WEATHER ROUNDUP FOR KANSAS
NATIONAL WEATHER SERVICE GOODLAND KS
200 PM CST FRI DEC 15 2017
NOTE:  "FAIR" INDICATES FEW OR NO CLOUDS BELOW 12,000 FEET WITH NO
SIGNIFICANT WEATHER AND/OR OBSTRUCTIONS TO VISIBILITY.
KSZ001>006-013>018-027>032-041>047-152100-
NORTHWEST KANSAS
  
CITY           SKY/WX    TMP DP  RH WIND       PRES   REMARKS
GOODLAND       SUNNY     59   2  10 SW18      29.94F                  
HAYS           SUNNY     56  21  25 W18G26    29.99F                  
HILL CITY      SUNNY     57  17  21 W14G20    29.95F                  
RUSSELL        SUNNY     54  24  31 SW21      29.98F                  
$$
KSZ061>065-074>080-084>089-152100-
SOUTHWEST KANSAS
  
CITY           SKY/WX    TMP DP  RH WIND       PRES   REMARKS
DODGE CITY     SUNNY     55  20  25 SW15      30.04F                  
GARDEN CITY    SUNNY     53  19  26 W12G23    30.02F                  
GREAT BEND     SUNNY     55  21  26 SW17G25   30.03F                  
LIBERAL        SUNNY     55  19  24 SW13      30.06F                  
$$
KSZ066>073-081>083-090>101-152100-
SOUTHEAST KANSAS
  
CITY           SKY/WX    TMP DP  RH WIND       PRES   REMARKS
CHANUTE        SUNNY     47  23  38 SW12G22   30.12F                  
COFFEYVILLE    SUNNY     50  24  36 W10G18    30.15F                  
HUTCHINSON     SUNNY     51  22  31 SW16      30.05F                  
MEDICINE LODGE   N/A     52  23  32 SW16G22   30.07F                  
NEWTON         SUNNY     48  25  40 SW16      30.07F                  
PARSONS        SUNNY     48  24  39 W10G22    30.13F                  
WICHITA INTL   SUNNY     50  27  40 SW14G24   30.09F                  
WICHITA JABRA  SUNNY     47  26  44 SW16      30.08F                  
WICHITA MCCONL SUNNY     48  25  39 SW13      30.08F                  
WINFIELD       SUNNY     48  27  44 SW14      30.13F                  
$$
KSZ007>012-019>026-033>040-048>060-102>105-152100-
NORTHEAST KANSAS
  
CITY           SKY/WX    TMP DP  RH WIND       PRES   REMARKS
CONCORDIA      SUNNY     50  24  36 SW13      29.97F                  
EMPORIA        SUNNY     47  24  40 W12G24    30.07F                  
LAWRENCE       SUNNY     47  22  37 SW14G23   30.07F                  
MANHATTAN      SUNNY     50  25  37 SW13G22   30.03F                  
OLATHE IND     SUNNY     45  21  38 SW14G22   30.08S                  
OLATHE EXE     SUNNY     43  21  41 SW10G20   30.07F                  
SALINA         SUNNY     53  24  32 SW17      30.03F                  
TOPEKA BILLARD SUNNY     49  22  34 SW10      30.05F                  
TOPEKA FORBES  SUNNY     49  22  34 SW18      30.04F                  
$$